Wind_Speed
15 13 12 10 9 8 6 4 1 2 4 6 8 10 11 13 14 14 15 14 14 15 15 15 15 14 13 12 12 11 11 11 10 10 10 9 9 9 8 7 5 5 4 3
16 15 15 13 12 10 7 5 3 2 3 4 6 7 9 11 12 13 14 14 13 13 14 15 14 14 13 13 12 12 11 11 11 10 10 9 9 8 8 7 5 4 4 4
19 18 17 15 13 12 9 7 5 5 4 3 4 6 8 10 11 12 13 13 12 12 13 14 14 13 13 13 12 11 11 11 11 11 10 10 10 9 8 7 7 6 5 4
22 21 19 17 15 13 11 10 8 6 4 3 3 4 6 8 9 11 12 12 12 11 12 13 13 13 13 13 12 12 12 11 11 10 10 10 10 10 9 8 8 7 6 6
24 23 21 19 17 16 14 12 10 8 5 3 3 2 5 6 8 9 10 11 11 11 11 12 12 12 12 12 12 12 12 11 11 11 11 10 10 10 9 9 9 9 8 7
26 24 23 22 20 18 16 14 11 10 7 6 4 3 4 6 6 7 9 10 10 10 10 10 11 11 11 12 12 12 11 11 11 12 11 11 11 10 10 10 9 9 9 9
27 26 26 24 22 20 18 14 11 10 9 8 7 5 4 5 6 6 8 9 10 10 9 10 10 10 10 10 11 11 11 11 11 11 11 11 11 11 10 10 11 10 10 10
27 27 27 26 24 22 20 17 15 12 10 10 10 7 6 6 6 6 7 8 9 9 9 10 9 9 9 9 9 10 10 11 10 10 10 11 11 11 11 11 12 12 12 11
27 27 27 27 26 24 22 20 17 15 14 11 11 9 7 7 7 7 7 7 8 9 9 10 9 8 8 8 8 9 9 10 10 10 9 10 11 11 11 11 12 13 13 13
29 28 28 28 27 26 24 21 20 17 15 13 12 10 9 9 8 7 8 8 9 9 9 10 9 8 8 8 8 8 8 9 9 10 9 10 11 12 12 12 12 13 14 14
30 30 29 29 29 27 26 25 23 20 18 15 13 13 12 10 9 9 9 9 9 9 10 9 9 8 8 8 8 8 7 8 8 9 10 10 11 12 12 13 13 13 14 15
31 30 29 30 30 28 27 26 25 23 22 19 16 15 14 12 11 10 10 10 9 10 9 9 9 9 8 8 8 8 7 8 8 9 10 10 12 13 13 13 14 14 14 15
31 31 30 29 30 30 29 28 26 24 22 21 18 16 15 13 12 12 11 11 10 9 10 10 10 10 9 9 8 8 8 8 9 10 10 10 11 13 14 15 16 16 16 15
31 32 31 28 27 28 29 29 28 26 25 23 21 20 18 17 14 14 13 12 12 11 12 11 11 10 10 10 10 9 9 10 10 11 11 12 12 13 15 16 16 17 17 17
31 32 32 31 30 29 29 29 29 29 27 25 23 23 20 19 17 16 16 15 14 14 13 12 12 12 12 11 11 11 11 12 12 12 12 13 13 14 15 16 17 17 18 17
31 31 31 32 31 31 31 30 30 30 30 29 27 25 22 21 20 18 18 18 17 16 16 15 15 15 14 14 14 13 14 14 14 14 15 15 15 15 16 17 18 18 19 19
31 31 31 31 32 31 33 31 31 31 31 30 29 27 25 24 22 21 21 20 19 19 18 18 17 18 17 17 16 16 16 16 16 16 17 17 17 17 18 18 19 20 20 20
32 32 32 31 31 32 32 31 31 31 31 31 31 30 29 27 25 24 23 22 22 21 21 20 20 20 20 19 19 18 18 18 18 18 18 18 18 19 19 20 20 21 22 22
33 32 32 32 31 32 32 32 31 31 31 31 32 31 30 29 27 27 25 24 23 23 22 22 22 22 22 21 21 21 20 20 19 19 19 20 20 20 21 21 21 22 23 23
33 33 33 33 31 30 31 32 31 30 31 31 31 30 30 29 29 27 26 26 25 25 24 24 24 23 22 23 23 23 22 21 21 22 21 21 21 21 22 22 22 23 24 24
33 33 33 34 33 32 33 33 32 32 32 31 31 30 30 30 29 28 27 27 27 26 26 26 25 24 24 24 24 24 24 24 24 23 23 23 23 23 24 24 25 25 26 25
34 34 35 34 33 34 35 34 34 34 33 32 32 31 31 31 30 29 29 28 28 28 28 28 27 26 26 25 25 25 25 26 26 25 26 26 26 27 27 27 27 28 28 27
34 34 34 35 35 35 35 34 34 34 33 33 33 32 32 31 31 31 30 30 30 30 30 31 30 29 28 28 28 28 28 28 27 27 28 28 29 29 30 30 30 30 31 30
34 35 35 35 36 36 36 35 35 35 35 34 34 34 34 33 32 31 31 31 31 32 32 31 32 32 30 30 30 30 30 30 30 30 30 30 31 31 32 32 32 32 31 31
34 34 35 36 36 36 36 36 36 36 36 36 35 35 35 35 34 33 32 32 33 33 33 33 32 32 32 32 32 32 32 33 33 33 33 33 33 33 33 33 33 32 32 32
33 34 34 35 35 36 36 37 37 37 37 36 36 36 36 36 35 34 34 33 33 33 34 34 34 34 33 34 34 34 35 35 35 35 35 34 34 34 34 34 34 34 33 33
Wind_Direction
205 202 203 200 193 190 187 177 155 8 16 28 38 40 38 35 33 32 32 32 32 34 34 35 37 39 43 48 50 50 52 53 55 56 55 54 52 49 53 58 61 59 52 46
208 210 210 211 210 205 199 195 220 280 336 9 29 34 31 29 28 28 27 27 29 31 31 33 36 37 40 44 46 48 50 52 53 53 53 51 50 48 50 51 54 55 49 44
209 216 218 217 216 214 215 215 231 259 295 335 7 15 18 22 25 24 22 23 26 26 27 28 33 35 38 41 44 47 49 51 50 50 52 52 49 48 48 48 46 44 43 33
215 217 217 220 221 217 222 230 238 253 283 320 358 2 357 12 15 15 16 17 19 20 22 24 29 33 36 40 44 47 47 47 45 46 48 50 49 48 46 44 42 39 31 24
219 218 218 221 223 224 227 236 242 249 258 280 325 352 341 0 3 7 9 12 15 17 19 21 24 28 32 36 41 44 44 43 44 45 44 43 42 39 37 34 30 23 22 14
220 218 218 220 222 227 233 238 244 249 256 263 279 314 327 341 349 354 358 4 10 16 17 16 18 23 28 32 37 40 40 41 44 43 41 39 36 34 32 26 19 14 10 2
220 220 220 221 224 229 233 237 245 250 256 258 264 277 293 317 330 339 348 358 4 9 11 12 13 16 21 27 31 33 33 35 36 37 36 33 31 29 28 23 16 10 4 359
220 222 223 223 225 230 232 232 233 236 247 259 267 266 281 303 315 327 338 349 358 1 4 6 8 11 14 19 23 25 27 28 28 28 29 28 25 24 24 21 16 11 4 358
218 222 225 225 226 229 233 232 233 240 243 248 255 258 270 285 298 312 322 333 346 350 354 355 355 357 4 8 12 15 19 20 21 20 20 20 19 20 19 16 13 8 2 357
217 221 225 226 228 230 231 233 235 235 242 247 256 262 262 273 285 297 304 314 328 337 341 343 345 345 351 358 2 3 3 6 10 12 13 15 12 10 8 6 4 2 358 356
219 222 226 227 229 231 232 232 235 238 239 241 252 258 258 265 273 284 295 302 310 317 328 335 336 337 341 347 351 354 355 0 2 1 2 3 3 0 358 356 354 354 353 351
221 222 225 228 231 231 231 233 236 238 243 243 245 252 256 257 264 274 287 294 299 303 312 322 328 330 332 337 341 342 341 343 344 347 347 348 350 352 349 346 346 345 346 346
222 224 226 229 232 233 233 234 236 239 245 247 247 253 256 257 259 267 275 283 290 291 298 306 314 318 320 323 326 329 333 333 331 331 333 334 336 342 345 343 341 342 341 339
224 225 226 227 231 234 235 236 237 239 242 246 247 248 252 255 258 263 268 273 280 284 289 293 299 306 310 314 317 318 322 323 325 325 328 329 332 335 337 338 338 338 338 334
225 227 228 229 230 233 236 238 239 240 240 243 248 252 253 253 256 258 262 265 268 275 280 282 286 292 298 305 309 310 312 315 318 319 321 322 326 329 332 333 334 335 337 336
226 229 231 232 233 235 238 239 240 242 243 245 248 252 255 255 255 255 257 259 262 265 270 274 278 281 288 293 298 300 304 308 311 313 317 316 317 321 325 327 328 328 330 331
229 230 232 234 235 237 239 239 241 244 246 247 249 251 253 254 253 251 252 254 258 261 262 267 270 274 281 285 290 292 295 301 305 307 310 312 312 315 317 319 321 322 323 325
231 232 234 236 237 236 240 241 241 243 246 247 249 251 252 252 252 252 251 251 254 257 260 262 266 270 274 279 283 287 291 294 297 300 303 307 309 310 311 312 314 317 318 319
232 234 235 237 239 241 241 241 242 243 245 246 248 250 251 251 252 251 251 251 251 253 257 260 263 266 269 273 278 282 286 288 290 293 298 303 305 306 306 307 308 312 315 317
233 234 236 236 236 240 242 242 241 243 245 244 246 248 249 249 251 249 248 248 248 250 254 257 261 264 267 270 274 278 281 284 286 290 294 299 301 304 305 303 304 306 310 313
234 236 237 238 239 242 243 243 244 244 245 245 245 246 248 248 249 249 248 248 248 249 251 254 259 263 266 269 272 274 277 281 285 286 289 293 297 300 301 302 303 304 307 309
236 238 239 240 241 243 244 244 243 245 245 246 246 246 247 248 248 248 248 249 249 251 253 255 257 260 265 268 270 273 276 279 282 283 286 289 292 295 298 300 300 301 303 304
237 239 241 241 242 245 246 246 246 246 246 246 245 246 247 247 248 248 248 249 250 252 254 256 257 258 261 265 268 270 273 277 279 281 284 287 289 292 294 296 297 299 301 301
238 240 242 244 245 246 247 248 248 248 247 247 247 246 246 247 247 248 248 248 250 253 255 256 256 257 259 263 265 268 272 278 281 282 283 285 288 290 291 292 294 295 297 299
240 241 243 245 247 249 249 249 249 249 249 248 247 247 247 246 247 249 250 251 253 254 255 255 255 256 258 260 264 268 273 276 279 280 282 284 287 289 291 292 291 292 294 296
241 241 243 246 247 248 249 250 250 249 249 248 248 248 247 247 248 249 251 252 253 253 253 254 255 255 258 260 264 269 273 275 276 278 281 284 287 289 289 289 289 291 291 292
Height
5934 5938 5940 5941 5943 5945 5945 5946 5946 5945 5944 5943 5941 5940 5938 5936 5934 5932 5930 5928 5926 5924 5922 5919 5917 5915 5913 5911 5909 5908 5906 5905 5903 5902 5901 5900 5899 5898 5897 5896 5895 5895 5895 5894
5933 5935 5938 5939 5941 5942 5944 5945 5945 5945 5944 5943 5942 5941 5940 5938 5936 5934 5932 5930 5928 5926 5924 5922 5919 5917 5915 5913 5911 5910 5908 5907 5905 5904 5902 5901 5900 5899 5898 5897 5897 5896 5896 5895
5931 5934 5934 5937 5939 5941 5943 5945 5945 5945 5944 5943 5943 5942 5941 5940 5937 5935 5934 5932 5930 5928 5926 5924 5921 5919 5917 5915 5913 5912 5910 5908 5907 5905 5904 5903 5901 5900 5899 5899 5898 5897 5896 5895
5927 5929 5932 5935 5937 5939 5942 5942 5943 5944 5944 5945 5944 5945 5943 5940 5939 5937 5935 5933 5931 5929 5927 5925 5923 5921 5919 5917 5915 5913 5912 5910 5909 5907 5906 5904 5903 5902 5901 5900 5899 5898 5897 5896
5923 5926 5929 5932 5935 5937 5939 5940 5942 5943 5944 5945 5944 5945 5945 5941 5939 5938 5936 5934 5932 5930 5929 5927 5925 5923 5921 5919 5917 5915 5914 5912 5911 5909 5907 5906 5904 5903 5902 5900 5900 5898 5897 5896
5920 5923 5926 5929 5932 5934 5937 5939 5940 5941 5943 5945 5944 5944 5945 5942 5940 5938 5937 5935 5933 5931 5930 5928 5926 5924 5922 5920 5918 5917 5915 5914 5912 5910 5909 5907 5905 5904 5902 5901 5900 5898 5897 5895
5915 5919 5922 5925 5929 5932 5934 5938 5941 5942 5944 5944 5943 5943 5943 5941 5940 5938 5937 5935 5933 5932 5930 5929 5927 5925 5923 5921 5920 5918 5917 5915 5913 5912 5910 5908 5906 5905 5903 5901 5900 5898 5896 5895
5912 5915 5918 5922 5925 5928 5931 5936 5939 5942 5943 5943 5941 5941 5942 5940 5939 5938 5937 5935 5934 5932 5930 5929 5927 5926 5924 5922 5921 5919 5917 5916 5914 5913 5911 5909 5908 5906 5904 5902 5900 5898 5896 5894
5909 5912 5914 5918 5921 5925 5927 5931 5935 5937 5938 5940 5940 5939 5939 5938 5938 5937 5936 5935 5934 5932 5930 5929 5928 5926 5924 5922 5921 5919 5918 5916 5915 5913 5911 5910 5908 5906 5904 5902 5900 5898 5896 5893
5903 5908 5910 5913 5917 5920 5924 5927 5930 5933 5935 5937 5938 5938 5938 5936 5936 5936 5935 5934 5933 5932 5930 5929 5927 5926 5924 5922 5921 5919 5918 5916 5915 5913 5911 5910 5908 5906 5904 5902 5900 5897 5895 5893
5898 5903 5906 5909 5912 5915 5919 5922 5924 5928 5930 5933 5936 5938 5934 5934 5934 5934 5933 5932 5932 5931 5929 5928 5927 5925 5924 5922 5920 5919 5917 5916 5915 5913 5911 5910 5908 5906 5904 5902 5899 5897 5894 5892
5893 5898 5901 5904 5907 5910 5914 5917 5920 5923 5925 5927 5930 5934 5930 5930 5931 5931 5931 5930 5930 5929 5928 5927 5926 5924 5923 5921 5920 5918 5917 5915 5914 5912 5911 5909 5907 5905 5903 5900 5898 5895 5893 5890
5887 5892 5896 5899 5903 5905 5908 5911 5915 5918 5921 5922 5926 5930 5927 5927 5928 5928 5928 5928 5927 5927 5926 5925 5924 5923 5922 5921 5919 5917 5916 5914 5913 5911 5909 5908 5906 5904 5902 5899 5897 5893 5890 5888
5881 5886 5891 5895 5898 5900 5902 5905 5909 5912 5915 5917 5920 5922 5923 5923 5924 5925 5925 5925 5925 5925 5924 5923 5923 5922 5921 5919 5918 5917 5915 5913 5912 5910 5908 5906 5905 5903 5900 5898 5895 5892 5889 5886
5875 5879 5883 5887 5891 5894 5896 5899 5902 5905 5909 5912 5914 5915 5917 5919 5920 5921 5921 5921 5922 5922 5922 5921 5920 5920 5919 5918 5917 5915 5914 5912 5910 5909 5907 5905 5903 5901 5899 5896 5893 5890 5887 5884
5869 5873 5877 5881 5884 5887 5890 5893 5896 5898 5901 5904 5907 5910 5912 5913 5915 5916 5916 5917 5917 5918 5918 5918 5917 5917 5916 5915 5914 5913 5912 5910 5908 5907 5905 5902 5900 5898 5896 5894 5891 5888 5885 5882
5862 5867 5871 5874 5877 5880 5883 5886 5889 5892 5894 5898 5900 5904 5905 5907 5908 5910 5911 5912 5912 5913 5913 5913 5913 5913 5913 5912 5911 5910 5909 5907 5906 5904 5902 5900 5898 5895 5893 5891 5888 5886 5883 5879
5856 5860 5863 5867 5871 5873 5878 5880 5882 5885 5888 5890 5892 5895 5898 5900 5902 5903 5905 5906 5907 5908 5908 5908 5908 5908 5908 5907 5907 5906 5905 5904 5902 5900 5899 5897 5895 5892 5890 5887 5885 5882 5879 5876
5849 5852 5856 5860 5862 5866 5869 5871 5875 5878 5880 5882 5884 5887 5889 5892 5894 5896 5898 5899 5900 5901 5902 5902 5902 5902 5902 5902 5902 5901 5900 5899 5897 5896 5894 5893 5890 5888 5885 5883 5881 5878 5875 5872
5841 5845 5849 5852 5855 5859 5862 5864 5867 5871 5872 5874 5876 5879 5881 5884 5886 5889 5890 5891 5893 5894 5895 5896 5896 5896 5896 5896 5896 5895 5895 5894 5892 5891 5890 5888 5886 5883 5880 5878 5876 5873 5870 5867
5833 5837 5840 5843 5847 5850 5853 5855 5859 5863 5864 5866 5868 5871 5873 5875 5878 5881 5882 5884 5885 5887 5888 5889 5889 5890 5890 5890 5890 5889 5889 5888 5887 5885 5885 5883 5881 5879 5876 5874 5871 5868 5865 5862
5825 5829 5832 5835 5839 5843 5843 5846 5849 5852 5855 5857 5859 5862 5864 5867 5869 5872 5874 5876 5878 5879 5880 5881 5882 5883 5883 5883 5883 5883 5883 5882 5880 5879 5878 5877 5875 5872 5870 5868 5865 5862 5859 5856
5817 5821 5823 5827 5831 5832 5834 5836 5839 5842 5845 5847 5850 5853 5856 5858 5861 5863 5866 5868 5869 5871 5872 5873 5874 5875 5876 5876 5876 5876 5875 5874 5873 5872 5871 5869 5867 5865 5863 5860 5858 5855 5852 5849
5808 5811 5814 5817 5820 5822 5825 5827 5829 5832 5835 5838 5841 5844 5846 5849 5852 5854 5857 5859 5860 5862 5864 5865 5866 5867 5868 5868 5868 5868 5868 5867 5866 5865 5864 5862 5860 5857 5855 5852 5850 5847 5844 5841
5799 5802 5805 5807 5810 5813 5815 5817 5820 5822 5825 5828 5831 5834 5837 5840 5843 5845 5847 5850 5851 5853 5855 5856 5857 5859 5860 5860 5860 5860 5860 5859 5858 5857 5855 5853 5851 5848 5846 5844 5842 5839 5836 5833
5790 5793 5796 5798 5801 5803 5806 5808 5809 5812 5814 5818 5821 5824 5827 5830 5833 5835 5838 5840 5842 5843 5845 5847 5848 5849 5851 5851 5851 5851 5851 5850 5849 5848 5846 5844 5842 5840 5837 5835 5833 5830 5828 5825